Location: Dos Palmas
(32.4468°N, 116.8732°W)
Time: 04:08:16
(UTC+00:00)

Cosmos 2279 Rocket - Pass Details

Date: 20 June 2021
Orbit: 963 x 980 km, 82.9° (Epoch: 29 July)

Event Time Altitude Azimuth Distance (km) Brightness Sun altitude
Rises 08:36:15 0° 352° (N) 3,673 7.9 -33.0°
Reaches altitude 10° 08:38:46 10° 350° (N) 2,720 7.0 -32.9°
Enters shadow 08:43:52 60° 329° (NNW) 1,099 4.3 -32.6°
